TimeEST,TemperatureF,Dew PointF,Humidity,Sea Level PressureIn,VisibilityMPH,Wind Direction,Wind SpeedMPH,Gust SpeedMPH,PrecipitationIn,Events,Conditions,WindDirDegrees,DateUTC
12:54 AM,55.0,43.0,64,29.97,10.0,South,9.2,-,N/A,,Overcast,180,2013-11-17 05:54:00
1:54 AM,57.0,44.1,62,29.96,10.0,South,13.8,23.0,N/A,,Overcast,170,2013-11-17 06:54:00
2:54 AM,55.9,46.0,69,29.97,8.0,South,12.7,18.4,0.00,Rain,Light Rain,180,2013-11-17 07:54:00
3:54 AM,55.9,45.0,67,29.92,10.0,SSE,11.5,-,0.00,,Mostly Cloudy,160,2013-11-17 08:54:00
4:54 AM,55.9,45.0,67,29.90,10.0,South,15.0,20.7,N/A,,Mostly Cloudy,170,2013-11-17 09:54:00
5:54 AM,53.1,50.0,89,29.89,8.0,South,9.2,-,0.08,Rain,Light Rain,170,2013-11-17 10:54:00
6:54 AM,53.1,50.0,89,29.89,10.0,South,10.4,-,0.04,,Overcast,180,2013-11-17 11:54:00
7:54 AM,55.0,50.0,83,29.88,10.0,South,20.7,25.3,N/A,,Overcast,180,2013-11-17 12:54:00
8:54 AM,57.0,50.0,77,29.86,10.0,South,19.6,29.9,N/A,,Overcast,190,2013-11-17 13:54:00
9:54 AM,57.9,51.1,78,29.85,10.0,South,15.0,23.0,0.00,,Mostly Cloudy,180,2013-11-17 14:54:00
10:54 AM,59.0,51.1,75,29.84,10.0,South,17.3,25.3,0.00,,Mostly Cloudy,190,2013-11-17 15:54:00
11:29 AM,60.8,51.8,72,29.82,10.0,SSW,15.0,20.7,N/A,,Overcast,200,2013-11-17 16:29:00
11:54 AM,61.0,52.0,72,29.81,10.0,SSW,13.8,-,N/A,,Overcast,200,2013-11-17 16:54:00
12:54 PM,61.0,53.1,75,29.77,10.0,South,21.9,27.6,N/A,,Overcast,190,2013-11-17 17:54:00
1:38 PM,62.6,53.6,72,29.75,10.0,SSW,20.7,31.1,N/A,,Mostly Cloudy,200,2013-11-17 18:38:00
1:54 PM,62.1,53.1,72,29.73,10.0,South,19.6,33.4,N/A,,Mostly Cloudy,190,2013-11-17 18:54:00
2:54 PM,63.0,52.0,67,29.69,10.0,South,19.6,26.5,N/A,,Mostly Cloudy,190,2013-11-17 19:54:00
3:54 PM,63.0,53.1,70,29.64,10.0,South,20.7,32.2,N/A,,Mostly Cloudy,180,2013-11-17 20:54:00
4:54 PM,63.0,53.1,70,29.62,10.0,South,20.7,34.5,N/A,,Mostly Cloudy,180,2013-11-17 21:54:00
5:54 PM,63.0,54.0,72,29.58,10.0,South,23.0,29.9,N/A,,Mostly Cloudy,170,2013-11-17 22:54:00
6:54 PM,63.0,54.0,72,29.52,10.0,South,20.7,35.7,N/A,,Mostly Cloudy,180,2013-11-17 23:54:00
7:54 PM,63.0,54.0,72,29.45,10.0,South,25.3,36.8,N/A,,Overcast,180,2013-11-18 00:54:00
8:54 PM,63.0,54.0,72,29.36,10.0,South,16.1,32.2,0.00,Rain,Light Rain,170,2013-11-18 01:54:00
9:54 PM,61.0,55.9,83,29.38,5.0,South,23.0,36.8,0.07,Rain,Rain,180,2013-11-18 02:54:00
10:16 PM,57.2,55.4,94,29.41,1.8,SW,28.8,44.9,0.07,Rain,Light Rain,220,2013-11-18 03:16:00
10:28 PM,53.6,50.0,88,29.41,5.0,SW,21.9,33.4,0.20,Rain,Light Rain,220,2013-11-18 03:28:00
10:54 PM,53.1,48.9,86,29.40,9.0,SW,19.6,29.9,0.21,Rain,Rain,220,2013-11-18 03:54:00
11:54 PM,54.0,45.0,72,29.38,10.0,SSW,15.0,-,0.02,,Overcast,210,2013-11-18 04:54:00